Flag for China Weather past 2 weeks in Taiyuan, Shanxi, China

Now
70 °F

Haze.


Feels Like: 70 °F
Forecast: 64 / 90 °F
Wind: 3 mph from Northeast

Location: Taiyuan Airport

Current Time: Jul 8, 2015 at 6:20:06 AM

Latest Report: Jul 8, 2015 at 5:30 AM


Visibility: 1 mi

Pressure: 29.92 "Hg (27.30 "Hg at 790m altitude)

Humidity: 73%

Dew point: 61 °F

Location of TaiyuanLocation

Historic Weather in Taiyuan — Graph

°F

Taiyuan temperature yesterday

Maximum temperature yesterday: 90 °F (at 2:30 PM)
Minimum temperature yesterday: 66 °F (at 4:30 AM)
Average temperature yesterday: 78 °F

Past Weeks' High & Low Weather Summary

 TemperatureHumidityPressure
High95 °F (Jun 27, 3:30 PM)94% (Jun 29, 3:00 AM)29.92 "Hg (Jun 29, 3:00 AM)
Low59 °F (Jul 1, 2:00 AM)15% (Jul 3, 3:30 PM)29.53 "Hg (Jun 26, 2:30 PM)
Average75 °F55%29.77 "Hg
* Reported Jun 23 4:00 AM — Jul 8 4:30 AM, Taiyuan, Weather by CustomWeather, © 2015

Note: Actual official high and low records may vary slightly from our data, if they occured in-between our weather recording intervals... More about our weather records

Advertising

Taiyuan weather history for previous 24 hours

 ConditionsComfort  
Time TempWeatherWind HumidityBarometerVisibility
4:30 AM
Wed, Jul 8
68 °FHaze.6 mph78%29.92 "Hg2 mi
4:00 AM70 °FHaze.1 mph73%29.89 "Hg2 mi
3:30 AM72 °FHaze.3 mph69%29.89 "Hg2 mi
3:00 AM72 °FHaze.6 mph69%29.89 "Hg2 mi
2:30 AM73 °FHaze.10 mph65%29.89 "Hg2 mi
2:00 AM73 °FHaze.10 mph65%29.89 "Hg2 mi
1:30 AM73 °FHaze.8 mph65%29.89 "Hg2 mi
1:00 AM73 °FHaze.8 mph65%29.89 "Hg2 mi
12:30 AM73 °FHaze.8 mph65%29.89 "Hg2 mi
12:00 AM75 °FHaze.13 mph57%29.89 "Hg2 mi
11:30 PM
Tue, Jul 7
75 °FHaze.10 mph57%29.89 "Hg2 mi
11:00 PM77 °FHaze.10 mph54%29.89 "Hg2 mi
10:30 PM77 °FHaze.10 mph54%29.89 "Hg3 mi
10:00 PM77 °FClear.8 mph51%29.89 "Hg4 mi
9:30 PM79 °FClear.8 mph48%29.86 "Hg4 mi
9:00 PM81 °FPassing clouds.8 mph42%29.86 "HgN/A
8:30 PM82 °FPassing clouds.8 mph37%29.83 "HgN/A
8:00 PM82 °FPassing clouds.8 mph35%29.83 "HgN/A
7:30 PM84 °FScattered clouds.8 mph31%29.83 "HgN/A
7:00 PM86 °FScattered clouds.10 mph27%29.80 "HgN/A
6:30 PM86 °FScattered clouds.10 mph24%29.80 "HgN/A
6:00 PM88 °FScattered clouds.10 mph24%29.80 "HgN/A
5:30 PM88 °FScattered clouds.8 mph25%29.80 "HgN/A
5:00 PM90 °FScattered clouds.6 mph26%29.80 "HgN/A
4:30 PM90 °FPassing clouds.3 mph22%29.80 "HgN/A
4:00 PM90 °FPassing clouds.3 mph27%29.80 "HgN/A
3:30 PM90 °FPassing clouds.3 mph27%29.80 "HgN/A
3:00 PM90 °FPassing clouds.6 mph29%29.83 "HgN/A
2:30 PM90 °FPassing clouds.1 mph31%29.83 "Hg5 mi
2:00 PM88 °FPassing clouds.6 mph33%29.83 "Hg5 mi
1:30 PM86 °FClear.1 mph35%29.86 "Hg5 mi
1:00 PM86 °FClear.3 mph35%29.86 "Hg5 mi
12:30 PM82 °FHaze.3 mph42%29.89 "Hg3 mi
12:00 PM82 °FHaze.3 mph42%29.89 "Hg3 mi
11:30 AM82 °FHaze.3 mph42%29.89 "Hg3 mi
10:30 AM79 °FHaze.3 mph48%29.92 "Hg2 mi
10:00 AM77 °FHaze.3 mph54%29.92 "Hg1 mi
9:30 AM77 °FHaze.1 mph54%29.92 "Hg1 mi
9:00 AM73 °FHaze.3 mph61%29.92 "Hg2 mi
8:30 AM73 °FHaze.1 mph61%29.92 "Hg2 mi
8:00 AM72 °FHaze.3 mph65%29.92 "Hg2 mi
7:30 AM72 °FHaze.6 mph65%29.92 "Hg1 mi
7:00 AM70 °FFog.6 mph69%29.92 "Hg2 mi
6:30 AM68 °FFog.3 mph73%29.92 "Hg2 mi
Weather by CustomWeather, © 2015

See weather overviewHow to use our weather pages